Theta_e
309 311 310 312 318 320 321 319 320 321 320 317 318 319 320 323 323 323 325 325 326 327 328 325 326 327 326 326 327 335 345 347 345 347 344 349 353 351 351 351 352 350 349 345 338 337 336 335 334 332 331 329 328 329 332 334 335 336 336 335 335 334 334 333 333 331 330 330 330 329 325 320 318 318 320 321 323 327 330 331 329 324 320 323 328 330 327 317 316 317 316 315 311 311 311 312 311
312 311 310 315 320 320 321 319 319 320 318 315 317 319 321 325 324 323 325 325 327 330 329 327 328 327 328 326 327 332 343 348 347 351 350 351 352 351 352 351 352 350 349 344 336 336 335 335 334 332 330 328 327 328 331 333 335 336 336 335 334 335 334 333 332 331 330 330 329 324 320 317 318 319 322 323 325 325 326 326 324 320 319 327 329 327 325 319 321 318 315 317 312 311 311 312 312
318 317 315 317 321 322 324 322 318 317 318 316 317 321 322 323 324 324 325 326 330 332 330 331 330 329 329 326 327 334 342 348 349 350 349 351 352 352 352 352 352 349 348 342 336 336 336 335 334 332 330 327 326 326 330 333 335 335 335 335 334 334 334 333 332 329 329 328 324 319 318 317 317 319 322 324 325 324 324 322 320 319 317 327 332 329 328 326 329 325 317 317 314 311 310 311 311
320 320 319 318 321 324 326 325 321 317 316 316 317 322 323 322 324 325 327 330 333 333 330 331 330 331 330 330 336 342 343 345 348 350 349 351 352 352 352 352 351 348 347 340 335 336 336 335 334 332 329 326 325 325 328 332 334 335 335 335 334 334 334 333 330 327 326 323 321 319 320 320 319 320 322 324 324 321 320 320 318 317 315 322 331 333 332 330 332 329 322 317 315 312 309 311 311
318 320 319 316 320 323 326 325 324 320 317 318 317 323 324 323 325 325 329 332 332 332 330 330 331 332 332 336 343 345 346 345 347 350 349 350 352 353 351 351 350 348 344 337 335 336 336 335 334 332 330 327 325 324 327 331 333 334 334 334 334 333 333 330 326 324 323 322 323 322 323 323 324 324 324 324 323 321 320 319 317 316 316 318 325 329 331 331 332 330 326 319 316 314 309 311 311
317 321 318 317 319 323 325 322 320 319 320 321 319 322 323 322 324 324 327 328 330 331 330 332 332 334 336 343 345 346 349 346 346 348 349 349 351 352 351 351 349 346 341 337 336 337 336 336 334 333 331 327 325 324 326 329 332 333 332 332 330 330 328 326 323 324 325 325 325 325 325 327 328 329 328 328 327 326 323 321 318 316 316 316 320 323 324 327 331 331 327 320 317 315 310 310 310
316 320 317 317 319 322 324 321 318 318 321 322 321 322 322 322 323 323 323 323 327 327 329 333 333 334 337 342 344 346 349 348 347 347 347 349 352 352 351 349 347 344 341 340 337 337 336 336 335 334 332 329 326 325 326 328 329 330 329 328 326 325 324 323 325 327 328 327 326 326 327 327 330 332 332 333 332 330 328 326 323 320 319 319 319 320 319 320 325 329 328 322 317 316 312 311 311
315 318 317 317 318 321 322 320 319 319 321 323 322 322 323 322 322 322 321 322 323 325 328 331 332 334 337 342 344 345 349 349 350 349 348 349 352 352 351 348 346 345 344 344 339 337 336 336 336 334 333 330 327 326 326 326 326 327 325 324 323 323 324 326 328 329 329 327 328 328 328 329 331 333 333 335 336 334 333 331 328 326 326 325 323 322 320 318 319 322 325 322 317 315 312 310 312
316 317 318 317 317 319 318 318 318 319 321 323 323 323 323 322 322 321 321 322 322 324 326 330 331 333 339 344 345 347 348 349 350 349 349 350 351 351 351 349 346 346 345 345 340 336 336 336 335 335 334 332 329 328 327 326 326 325 324 323 324 326 328 329 330 329 329 329 330 330 331 331 331 333 334 335 336 336 335 333 331 330 330 329 328 327 325 322 319 319 321 321 317 314 313 312 312
317 318 318 319 317 315 315 316 317 319 320 322 322 322 322 322 322 322 320 321 321 323 324 331 331 332 342 345 347 349 349 349 349 348 349 350 350 350 350 349 346 346 346 345 339 336 336 335 336 335 335 333 332 331 329 328 326 325 324 326 328 329 330 330 330 330 331 331 332 332 332 332 332 334 334 335 335 336 336 335 333 332 331 330 330 329 330 329 325 320 317 316 316 315 314 313 313
318 318 319 320 317 314 313 316 318 319 320 321 322 322 322 321 321 320 321 320 321 323 323 327 330 336 344 347 348 349 349 349 348 348 349 349 349 349 348 348 346 346 346 343 338 336 336 334 335 335 335 334 334 332 330 329 327 327 327 328 329 330 330 330 332 331 332 333 332 332 331 332 332 332 334 334 334 335 336 335 334 333 332 331 330 330 331 331 329 325 319 315 315 315 313 315 314
316 318 318 318 317 315 316 316 318 321 321 320 321 322 321 320 321 320 321 320 320 322 322 325 326 335 343 347 349 349 349 348 347 346 348 349 348 347 346 347 346 346 346 343 338 336 336 334 335 335 336 335 334 333 331 330 329 329 329 329 329 330 331 331 332 332 333 333 332 331 330 329 329 330 332 333 333 335 334 333 333 334 333 331 330 329 330 331 329 328 324 316 314 314 313 314 315
316 318 318 316 316 317 317 317 319 321 321 321 322 322 321 321 321 321 321 320 320 322 321 324 329 336 343 347 350 351 350 347 347 345 346 348 347 346 345 346 346 345 346 344 339 336 335 335 335 336 336 335 335 334 332 332 331 330 330 330 330 331 331 332 332 332 333 332 330 329 326 325 326 328 330 331 332 333 332 332 332 333 332 331 330 329 328 328 327 328 326 320 315 314 314 314 314
317 319 318 317 317 318 317 316 318 318 319 321 321 321 322 322 322 322 322 320 320 321 321 325 333 341 346 347 348 350 350 347 347 344 345 347 346 346 345 345 346 345 345 344 340 337 336 335 336 336 336 335 335 334 333 333 332 331 331 331 331 332 332 332 332 332 332 330 328 327 325 324 325 328 329 330 331 331 331 330 330 332 332 331 331 329 326 324 324 325 324 322 320 316 314 315 313
317 319 319 319 318 318 318 317 318 317 318 321 320 321 323 321 323 324 323 322 321 322 324 329 334 339 343 343 344 347 350 348 347 346 347 348 347 347 345 345 345 345 344 344 342 339 337 336 336 336 336 335 334 335 334 333 333 332 332 332 333 333 332 332 332 331 330 328 326 326 327 326 326 328 329 330 330 330 330 329 330 331 331 330 329 327 325 324 323 323 321 320 321 319 316 315 315
317 318 318 317 316 316 318 318 318 317 318 320 320 321 322 321 323 324 325 324 322 324 327 332 333 336 339 339 340 346 348 348 348 348 348 349 347 347 346 345 344 344 343 344 342 339 337 336 335 336 336 335 335 335 335 334 334 333 333 333 334 334 333 332 331 330 328 327 327 328 328 327 328 328 328 328 329 329 327 328 329 329 329 328 327 325 325 325 323 322 322 319 319 321 318 316 317
317 317 317 316 316 316 318 319 318 318 319 321 321 322 321 320 324 324 325 326 325 326 329 332 334 338 342 343 344 347 348 348 349 349 349 348 347 346 344 344 344 343 343 344 343 339 338 337 335 336 335 335 336 336 335 335 334 333 334 334 334 333 332 331 330 328 328 328 328 328 328 327 328 327 327 328 328 327 326 326 326 325 325 325 324 323 322 321 320 320 321 321 318 319 321 317 318
317 317 316 316 317 318 319 319 320 320 320 320 321 321 320 321 324 325 325 328 328 329 331 334 337 340 343 345 347 348 349 349 350 349 349 348 347 346 345 344 342 342 343 343 342 339 338 336 335 335 335 335 336 336 335 336 334 334 334 333 331 331 331 330 328 327 328 329 329 329 328 328 329 327 328 329 328 327 326 325 325 324 323 322 321 321 320 319 318 318 319 321 318 317 321 319 318
318 318 317 316 318 319 320 320 321 320 319 320 321 320 320 320 323 326 326 327 327 329 334 336 337 339 341 344 347 349 349 350 350 349 349 348 347 347 345 344 342 342 343 343 341 340 339 337 335 336 334 335 337 336 336 335 335 335 332 330 330 331 329 328 327 328 329 330 330 330 329 329 330 329 329 330 328 328 328 325 325 325 323 321 321 320 320 319 318 318 318 320 319 317 320 321 320
318 318 317 318 318 319 321 321 320 321 320 320 321 320 321 319 321 325 327 328 329 332 334 335 336 337 340 343 344 347 348 349 349 348 347 348 347 347 345 344 343 342 342 342 341 341 339 337 336 336 335 336 336 336 336 336 335 334 331 330 330 330 328 326 328 329 330 330 330 331 330 330 330 329 329 330 329 329 329 326 324 324 323 321 320 320 319 319 318 318 319 321 323 322 323 325 327
318 318 317 318 319 318 319 321 320 321 320 320 320 320 320 319 321 324 327 330 331 333 333 333 335 336 340 341 343 347 348 349 350 347 347 347 347 346 345 343 342 341 341 341 341 341 339 337 336 336 336 336 336 336 336 335 334 333 331 330 329 328 326 327 329 329 330 330 331 331 330 330 329 328 328 329 329 329 328 326 325 324 324 322 321 324 324 321 321 321 322 324 328 328 328 329 331
318 318 318 318 318 318 319 320 320 320 319 319 320 319 319 320 320 322 325 329 330 332 332 333 335 336 340 342 344 348 349 349 349 347 346 347 347 346 344 343 342 342 341 341 341 341 339 337 337 337 336 335 336 336 335 335 334 332 332 330 329 327 325 328 330 330 331 331 331 330 329 330 329 327 327 329 328 329 328 327 327 326 327 326 324 328 329 326 326 327 327 328 330 331 330 330 331
317 318 319 318 319 318 319 320 319 319 319 319 319 319 319 320 320 320 323 327 328 331 331 332 334 335 339 343 345 347 349 348 348 347 346 346 346 345 344 342 342 342 342 341 341 341 339 337 337 337 337 336 336 336 335 335 332 332 332 331 330 327 326 330 331 331 331 330 329 329 329 329 329 329 329 329 329 329 328 327 328 328 328 329 327 328 329 329 329 330 330 330 331 331 331 331 331
317 317 319 319 319 318 319 319 319 318 318 319 318 318 320 319 319 320 321 325 327 329 330 332 333 334 338 342 345 347 347 347 346 347 346 346 346 344 343 342 342 342 342 341 341 341 339 338 337 337 337 336 336 335 335 333 331 331 331 331 331 329 330 333 332 331 330 328 329 329 330 330 329 330 330 328 329 329 329 327 328 328 328 328 327 327 327 330 330 330 330 331 331 331 331 330 330
317 317 318 319 319 319 319 319 319 319 318 318 318 318 319 318 319 319 320 323 325 327 329 330 331 333 337 340 344 346 347 346 346 346 346 346 345 344 343 342 342 342 342 341 340 340 339 338 338 337 337 337 336 336 334 332 331 329 330 331 331 330 332 335 334 332 329 328 329 329 330 331 329 330 329 328 328 330 328 326 328 328 328 328 327 328 329 330 330 330 330 330 331 331 330 330 329
317 317 318 319 319 319 319 318 319 319 319 318 318 318 318 318 318 319 320 321 324 326 327 328 330 333 337 339 342 345 346 346 345 345 345 344 344 344 343 342 342 341 341 341 340 339 339 338 337 337 337 336 336 334 333 331 329 329 332 332 332 332 332 333 333 332 329 329 330 329 328 329 329 329 329 329 328 329 328 326 328 328 329 329 328 329 330 330 330 330 330 330 330 330 329 330 330
318 318 319 318 318 319 318 319 319 318 318 317 318 317 318 319 318 318 319 320 322 326 326 325 329 333 336 339 343 346 346 345 344 344 343 343 344 343 343 342 341 341 340 340 340 339 338 338 338 337 336 336 335 334 332 330 329 331 333 332 332 332 331 332 332 329 328 329 330 329 328 327 328 329 329 330 329 327 327 326 328 328 328 329 329 329 328 329 329 329 330 329 329 330 329 329 330
317 317 318 318 318 319 318 318 319 318 318 317 318 317 318 319 318 318 319 319 320 323 324 323 330 336 336 339 344 345 345 345 343 344 344 343 343 343 342 341 340 340 339 340 339 338 338 337 337 337 336 336 334 333 332 332 333 334 332 332 333 331 330 332 332 329 328 329 330 329 328 326 327 329 329 329 329 327 326 327 327 327 327 327 328 327 327 328 327 328 330 329 330 330 328 328 329
317 316 317 317 318 318 318 318 318 318 318 318 318 315 316 318 318 319 319 319 320 321 323 321 330 337 336 337 339 340 343 344 343 344 344 343 343 342 341 339 338 339 338 339 339 337 337 336 336 336 335 335 334 333 333 333 334 333 332 332 333 332 331 332 332 331 330 330 329 328 326 326 326 327 328 329 329 327 327 328 327 326 326 326 327 327 327 328 327 329 330 330 331 329 328 328 329
317 316 316 316 316 316 318 318 317 318 318 318 318 313 315 317 318 320 319 319 320 321 322 321 330 337 339 339 339 339 342 343 343 343 343 343 342 341 340 339 338 338 338 338 337 337 336 335 335 336 335 335 334 333 333 332 331 330 329 328 330 332 332 331 330 329 328 328 328 328 326 325 325 325 327 329 329 328 327 328 328 328 327 325 326 328 329 328 328 329 330 330 330 329 329 329 329
316 316 316 315 314 314 317 318 318 318 317 318 317 312 314 317 318 319 319 320 320 323 322 324 335 340 342 343 342 342 342 342 342 341 341 342 341 340 339 338 338 338 338 338 337 336 335 335 335 335 334 333 332 331 331 331 330 329 327 326 329 332 331 329 327 325 324 325 327 328 326 324 325 326 328 329 329 329 329 328 329 329 327 325 327 329 328 327 328 329 330 330 330 329 330 329 329
315 314 313 314 313 313 318 318 318 318 317 318 317 313 315 317 318 319 320 319 320 324 320 327 338 341 342 342 343 342 342 341 340 341 341 341 340 339 338 337 337 338 337 337 336 336 335 336 336 334 333 332 330 329 329 329 329 327 326 328 329 329 328 325 324 324 325 326 326 327 327 326 327 327 327 327 328 328 329 329 329 329 328 328 328 328 327 326 328 329 329 330 330 330 330 330 329
315 314 312 313 313 313 315 317 318 318 317 318 316 314 315 317 319 319 320 319 321 323 320 330 339 341 340 341 343 342 343 342 340 340 339 339 339 338 337 336 337 338 337 336 336 335 335 335 334 332 332 331 329 328 327 326 326 324 324 326 327 326 325 325 324 324 325 326 326 326 326 327 328 327 326 327 328 329 329 329 330 330 328 328 327 327 325 325 327 329 329 330 330 330 330 329 329
314 314 313 314 314 313 314 315 318 318 317 317 316 316 316 317 319 319 320 319 321 322 320 332 340 341 341 342 343 342 342 341 340 337 337 337 338 338 337 336 337 336 335 336 336 335 335 333 330 330 331 330 329 328 325 324 325 324 324 325 325 325 325 324 324 325 326 325 325 325 326 327 328 328 327 327 329 330 328 329 331 330 328 327 327 327 325 324 327 328 329 331 330 329 330 330 329
314 314 313 313 313 314 314 315 318 318 318 316 316 316 316 318 318 319 321 320 321 321 320 333 340 341 341 342 342 342 341 341 340 337 336 336 336 337 336 335 335 333 334 336 335 334 334 331 330 331 331 330 329 326 324 325 325 323 323 323 324 325 325 325 326 326 327 327 327 328 329 329 328 327 328 329 330 330 328 328 329 329 327 327 328 328 326 325 327 327 328 330 329 329 330 330 329
315 316 314 314 313 313 315 316 318 319 317 317 317 316 316 317 317 319 322 320 322 321 321 334 339 340 340 340 340 341 341 340 339 336 335 335 334 336 336 334 333 333 335 335 334 334 334 333 331 330 329 329 328 326 325 325 324 323 324 324 325 327 326 325 326 327 328 328 329 331 331 330 328 327 327 329 329 328 327 327 328 329 328 327 327 327 326 326 327 326 327 327 327 329 329 330 330
316 316 315 315 314 313 316 317 319 319 317 316 317 317 316 317 318 319 321 321 322 321 321 333 339 338 337 336 338 341 341 339 337 334 333 334 333 335 335 334 333 333 335 335 335 334 332 331 331 329 327 327 328 326 325 325 326 327 327 327 327 326 325 325 327 329 330 330 330 330 331 329 328 327 326 329 328 328 328 327 328 329 328 326 324 325 326 326 326 326 326 326 327 330 329 329 330
316 316 315 315 314 314 316 318 319 319 318 317 317 317 317 318 318 319 320 321 321 321 321 327 334 336 335 333 335 340 340 338 336 331 331 334 335 335 334 334 333 333 335 334 335 333 327 326 327 328 327 327 325 324 325 328 328 327 327 327 326 324 324 326 328 328 326 327 330 330 329 330 329 327 326 328 328 328 328 326 328 328 326 325 324 325 326 325 325 325 326 327 326 328 329 329 329
317 316 316 315 316 316 317 318 319 319 318 317 318 316 316 318 319 319 319 321 320 321 321 320 330 335 335 333 333 338 337 334 334 330 329 335 337 335 333 333 333 333 334 333 332 331 328 326 326 326 326 325 323 324 327 329 327 326 326 326 326 325 325 326 328 327 324 326 329 330 329 330 330 329 329 329 328 329 327 323 326 327 324 325 326 325 325 326 325 325 326 327 326 327 329 329 327
317 317 315 314 316 315 314 316 319 319 318 318 319 317 317 319 318 319 319 321 320 320 321 320 330 336 335 333 332 336 334 333 334 329 329 334 336 336 333 333 334 333 334 333 331 330 328 327 325 324 324 323 323 324 325 326 324 324 325 326 327 328 327 326 327 329 328 327 328 329 330 330 329 330 330 329 329 329 327 324 327 327 325 325 326 324 324 325 324 324 326 328 328 328 330 329 327
317 318 317 315 317 316 315 317 319 319 318 319 319 316 317 319 318 319 319 321 320 321 323 319 329 336 334 332 332 335 334 333 332 329 331 334 334 335 333 331 332 332 334 334 332 330 327 326 325 323 323 323 323 323 322 322 324 326 327 325 323 321 320 323 326 327 327 327 326 327 328 329 329 330 331 330 330 329 328 326 326 327 327 326 324 324 324 324 323 325 326 328 329 329 330 328 325
316 318 318 317 317 316 317 319 318 316 316 318 318 314 314 317 318 319 319 321 320 321 323 320 330 335 332 332 334 334 332 331 331 330 332 334 334 333 331 329 331 332 333 333 332 330 327 326 325 322 323 325 324 323 322 323 322 321 321 319 319 320 320 323 326 325 326 327 327 327 326 327 327 328 329 329 328 328 328 327 326 326 327 326 326 325 324 323 323 324 325 326 328 328 329 328 326
314 316 318 317 317 317 316 318 316 314 314 318 320 315 314 316 317 320 320 320 320 321 322 323 332 334 331 334 334 332 331 329 331 331 332 334 335 333 331 331 331 331 331 332 331 330 327 325 324 322 322 326 326 324 325 326 321 318 321 323 325 326 327 327 327 326 326 326 326 326 324 324 325 323 323 324 324 324 324 324 323 323 323 323 324 326 325 324 324 325 326 327 327 328 328 329 328
313 315 317 316 316 316 317 317 315 315 317 319 320 317 314 314 317 321 321 320 319 321 320 322 332 334 332 334 333 331 330 330 333 334 332 334 334 332 334 335 332 329 330 330 329 328 326 324 324 323 321 323 326 326 328 327 323 324 328 328 327 328 327 326 325 325 324 322 322 322 320 323 326 324 323 324 324 324 324 325 324 323 323 322 323 325 326 325 325 326 327 328 328 328 328 328 328
314 316 317 316 316 315 316 317 315 317 317 315 317 318 315 313 316 320 320 319 319 320 321 321 329 333 332 333 334 333 332 333 335 335 335 337 336 334 334 334 331 329 330 330 328 326 325 324 323 324 321 320 323 325 326 325 323 327 328 326 326 326 323 320 321 321 319 318 321 323 324 325 326 325 324 324 324 324 324 324 324 324 324 324 323 324 325 325 325 325 326 327 328 328 327 326 326
316 316 316 317 316 316 317 317 316 316 317 315 316 318 316 314 315 318 318 319 319 320 322 320 327 333 333 333 334 335 335 334 335 336 337 337 335 333 333 333 331 330 330 330 329 327 325 323 322 322 321 319 321 322 323 322 322 326 327 325 323 321 319 320 321 318 315 317 321 323 324 324 324 325 324 323 324 325 325 324 322 323 324 324 323 324 325 324 325 325 325 325 326 325 324 323 324
317 316 316 316 317 316 317 317 315 315 316 316 316 318 318 315 315 317 319 319 319 321 321 321 328 333 333 333 335 335 335 334 334 335 336 335 333 330 330 333 332 330 329 328 328 327 325 323 322 322 321 320 320 320 320 321 322 326 326 323 320 318 320 323 321 317 316 318 320 321 322 323 324 324 323 323 324 324 324 324 323 322 323 324 324 324 323 323 324 325 324 322 321 321 322 322 323
316 316 315 315 315 315 314 314 314 314 314 315 315 317 318 316 318 321 322 322 322 322 319 323 331 333 333 334 334 334 334 336 335 335 335 333 329 326 325 332 333 330 328 328 328 327 325 324 323 322 321 320 321 320 321 323 323 324 323 320 318 316 318 321 320 319 321 321 321 322 323 324 324 324 323 323 323 323 322 324 324 323 322 323 323 322 322 323 324 323 322 321 320 320 322 323 323
316 315 314 314 314 313 312 311 312 313 314 315 316 317 317 319 322 324 324 325 326 324 320 327 332 332 333 333 334 333 334 336 336 335 334 331 327 327 328 332 333 330 328 328 329 328 326 325 324 326 324 320 319 320 322 324 322 321 321 319 317 314 314 319 319 320 322 322 321 322 322 323 323 323 323 322 322 323 323 323 324 323 322 323 323 322 322 324 325 324 322 321 321 321 323 324 324
315 314 314 314 313 314 314 313 313 314 314 315 316 318 318 320 323 324 324 325 326 326 325 329 331 331 331 332 333 332 333 335 336 336 334 333 332 333 334 334 332 329 329 330 330 329 329 327 327 330 328 322 322 322 322 323 322 321 321 320 320 315 313 317 319 320 321 321 321 321 322 323 323 323 323 322 322 324 324 323 323 323 322 322 322 323 323 324 325 325 323 323 323 323 324 324 324
315 315 315 315 314 315 315 314 315 315 314 315 317 319 320 320 323 325 325 326 327 327 327 327 330 331 330 330 331 331 332 334 335 335 334 334 335 335 335 334 333 330 329 330 330 329 329 328 330 332 331 327 328 325 321 321 322 322 320 320 322 319 316 319 320 319 318 319 320 321 323 323 323 323 323 322 322 323 323 322 323 324 322 321 321 322 323 323 323 323 323 323 323 323 323 323 323
316 316 314 315 316 316 315 316 317 316 315 316 317 320 322 322 323 324 325 326 326 327 328 326 326 329 329 329 329 330 332 332 333 334 334 335 335 334 334 334 333 332 330 329 329 329 329 329 329 331 331 330 329 325 321 321 323 322 320 321 324 322 320 321 320 318 317 318 321 323 323 323 323 322 321 320 319 318 319 320 322 323 321 320 321 321 322 322 322 321 320 319 320 320 320 320 320
317 315 312 315 319 318 316 317 317 316 315 316 318 321 323 322 323 323 323 324 324 325 328 326 325 327 328 329 329 329 331 331 332 333 334 334 333 332 333 333 333 333 330 329 329 327 327 327 327 328 330 330 329 326 323 324 326 324 321 322 325 323 321 321 320 317 315 317 321 323 323 323 322 320 318 317 315 315 317 319 320 321 319 319 319 320 320 321 320 318 316 316 316 316 315 313 311
316 314 314 316 318 318 318 316 316 316 316 317 320 321 320 320 321 322 323 324 325 326 328 328 327 327 327 327 329 329 330 329 330 333 333 332 331 331 332 331 332 332 329 327 328 328 327 326 326 328 328 327 328 328 326 327 328 326 323 324 324 323 322 321 319 314 312 313 316 319 321 321 321 318 314 313 313 314 316 316 316 317 317 316 317 317 317 317 317 315 313 312 312 311 310 307 306
318 317 317 316 315 316 316 316 316 316 316 317 318 319 320 319 320 321 323 325 326 326 327 328 328 328 327 327 328 328 329 330 330 331 331 330 330 330 330 330 331 331 329 329 330 330 328 325 326 329 328 325 325 327 327 327 328 327 325 324 323 322 323 322 319 314 310 309 310 312 314 316 317 315 310 308 309 310 310 310 310 312 313 314 314 314 314 313 312 310 309 308 307 306 305 305 306
317 317 318 317 316 316 316 316 316 316 317 316 315 318 323 323 322 324 324 324 325 326 327 328 328 327 326 326 327 328 330 330 329 329 329 330 329 329 328 328 330 330 330 331 331 330 329 326 327 328 326 323 323 325 325 325 325 325 324 323 321 321 322 322 320 315 310 308 309 308 307 308 310 310 307 307 308 309 309 309 308 307 307 309 310 310 310 308 307 306 305 305 305 306 306 308 309
316 315 316 317 317 317 317 318 316 315 317 316 315 321 325 324 323 325 325 323 324 325 326 327 327 326 326 326 326 327 328 329 327 327 328 329 328 328 327 326 328 328 329 329 329 329 327 325 325 326 325 324 323 322 322 323 323 322 324 324 323 322 322 322 320 314 309 310 311 310 307 305 306 306 306 307 310 310 310 310 309 307 306 305 306 307 306 306 306 306 305 306 308 309 310 311 312
316 315 315 316 316 316 316 317 315 314 316 317 318 323 326 323 322 325 325 324 325 326 327 327 327 327 326 326 326 326 326 326 326 327 328 328 327 328 328 327 326 326 327 327 327 326 326 325 325 325 326 325 323 321 321 323 323 324 325 326 324 323 322 321 318 311 310 312 314 312 308 305 305 305 306 309 311 311 310 310 310 310 308 306 306 306 307 308 307 306 307 310 312 313 312 313 314
Wind_Speed
5 7 10 12 10 3 7 10 5 5 5 7 9 8 10 14 14 14 10 3 1 3 7 11 1 3 5 6 8 10 21 14 9 6 6 9 14 10 11 20 20 13 13 20 22 22 20 19 19 18 18 17 17 18 19 19 19 18 18 17 16 15 14 13 12 10 10 10 10 10 10 10 9 9 8 9 10 10 9 8 6 5 5 6 7 7 6 5 5 6 7 7 8 8 8 9 10
6 5 9 9 4 4 9 11 5 4 7 8 8 10 12 13 15 15 8 3 3 5 4 2 3 2 3 6 11 5 16 18 15 14 14 15 18 13 12 15 15 12 13 21 24 23 21 20 20 18 18 17 18 18 19 19 19 19 18 17 16 15 14 13 11 10 9 9 9 9 9 9 9 10 10 10 10 11 9 8 5 4 5 6 6 6 6 5 6 6 7 7 7 8 7 7 8
6 4 6 5 7 10 8 8 7 6 7 8 8 11 12 14 13 9 5 3 5 9 4 5 3 3 3 5 5 4 10 17 17 15 16 18 21 19 14 14 14 10 13 23 25 23 22 20 20 19 18 17 18 18 19 19 19 19 17 17 16 15 13 12 11 10 9 9 9 9 10 9 9 10 11 11 10 11 10 8 6 5 5 6 6 5 5 6 6 6 7 8 7 7 7 6 7
9 10 10 9 9 10 7 6 7 7 8 7 8 10 14 15 10 4 2 5 9 8 2 1 1 3 3 3 8 13 13 14 15 14 15 16 21 24 19 16 12 7 15 26 25 24 22 21 20 19 18 17 18 18 18 19 19 18 17 17 15 14 13 12 11 10 10 10 10 10 10 10 9 10 11 11 10 11 11 10 8 7 5 6 6 5 6 6 6 6 7 8 8 7 7 6 6
10 10 10 11 8 5 5 5 6 8 8 8 8 3 3 4 2 6 9 7 3 1 2 2 2 7 2 8 12 9 10 12 14 14 15 18 21 25 21 16 9 8 20 27 25 24 22 21 20 18 18 17 17 17 18 19 18 18 17 16 15 14 13 12 11 11 12 11 12 11 10 10 10 10 11 11 10 10 10 11 9 9 8 6 7 6 7 6 6 5 6 9 9 8 7 7 6
9 6 9 13 10 7 6 6 7 8 10 12 10 7 7 8 9 10 7 2 1 1 5 5 3 2 4 11 15 10 12 9 10 11 14 19 21 22 19 14 11 16 24 27 25 23 22 20 19 18 17 16 17 17 18 18 18 17 17 16 15 14 13 13 13 13 14 13 13 11 10 9 10 10 11 10 9 9 10 10 9 9 9 8 7 6 6 7 7 6 6 8 10 9 8 8 6
8 7 10 10 10 7 6 7 8 8 11 13 12 13 5 8 7 6 1 2 3 4 6 5 5 2 6 11 15 15 14 9 8 10 13 20 22 21 19 17 18 21 23 22 23 23 21 20 19 18 17 17 17 18 18 18 18 18 17 17 15 15 14 14 14 15 15 14 13 12 10 9 9 10 10 10 9 10 10 10 9 8 8 8 8 6 5 5 6 6 7 8 11 10 9 9 7
10 10 10 8 6 6 7 7 10 8 11 13 13 13 2 8 5 2 4 3 3 3 8 7 6 3 7 13 12 11 13 12 11 12 16 23 26 24 21 22 23 24 21 17 21 23 21 20 19 18 17 17 18 18 19 19 19 19 18 18 17 16 15 16 15 15 15 14 13 12 11 9 8 9 9 10 10 11 10 9 9 8 7 7 7 6 6 5 4 5 6 7 11 12 10 10 8
12 12 9 7 6 6 8 8 9 10 13 12 13 8 7 5 2 3 6 3 2 1 7 10 9 6 12 19 13 11 12 11 12 14 16 21 24 22 20 22 24 26 22 16 20 24 21 21 19 18 18 18 19 19 19 19 19 19 19 18 18 17 16 16 16 15 15 13 12 11 10 10 9 9 8 8 10 10 9 9 8 8 7 6 6 6 6 5 4 3 4 7 10 12 11 11 10
12 12 9 6 6 7 8 8 8 10 13 13 12 6 3 3 3 5 7 7 6 4 8 10 10 7 17 18 12 11 11 10 13 15 15 18 21 20 18 21 24 25 21 18 22 24 22 22 20 19 19 19 19 19 19 19 20 20 20 19 19 18 17 16 16 15 14 12 11 10 10 10 9 9 8 8 9 9 8 8 7 7 6 5 4 5 5 4 3 3 3 6 9 12 12 12 12
10 11 10 6 6 7 7 8 9 9 11 13 10 4 1 2 2 5 7 9 9 6 8 8 8 12 20 13 12 10 10 12 14 16 14 15 18 17 18 21 23 21 18 19 24 24 23 23 21 20 20 20 20 20 20 21 21 21 20 20 19 18 17 16 15 14 13 11 11 10 9 10 9 8 8 7 7 8 7 7 7 5 4 4 3 3 4 4 3 1 1 4 7 11 12 12 12
9 8 8 6 7 7 8 9 9 11 10 13 9 3 3 6 4 7 8 9 9 9 8 8 7 11 14 10 13 12 11 12 14 17 14 14 16 15 18 21 20 18 16 18 22 24 24 24 23 21 20 20 20 20 21 21 21 21 20 19 18 17 16 15 14 13 13 11 10 9 8 9 8 7 7 6 7 8 7 6 6 5 3 2 2 2 2 3 2 1 1 2 4 8 11 12 12
10 7 7 6 7 7 10 10 9 10 7 8 2 8 7 5 3 9 9 10 10 9 11 11 5 8 10 10 11 13 14 12 13 14 12 14 16 16 19 20 20 17 15 17 22 24 24 24 23 22 21 21 21 21 21 21 20 20 20 19 18 17 15 14 13 13 12 11 9 8 8 8 8 7 6 6 6 7 7 5 4 4 3 2 2 1 1 1 1 2 1 2 3 6 9 11 11
12 11 7 6 7 9 10 9 10 9 6 2 4 10 11 3 6 7 8 10 11 11 12 9 14 16 13 11 9 12 14 13 14 13 12 15 17 18 18 18 18 16 15 18 21 24 24 24 24 23 23 24 23 22 21 20 20 19 19 18 18 17 15 14 13 12 12 11 10 9 9 8 8 7 6 6 6 6 5 5 5 4 4 3 2 0 0 0 1 1 1 3 4 4 7 9 10
14 13 8 7 7 9 8 9 10 8 4 7 4 5 7 4 6 3 9 9 10 12 6 5 13 10 10 9 8 13 15 15 13 13 14 16 16 15 15 16 16 16 17 19 21 23 25 26 25 25 25 26 25 23 22 21 19 18 18 17 17 16 15 14 13 12 12 11 11 10 10 9 8 7 7 6 6 5 5 5 5 4 4 3 2 1 1 1 0 1 1 2 3 4 5 7 8
15 13 6 6 8 8 8 10 10 9 4 8 6 4 0 7 6 5 11 10 13 10 5 8 9 7 10 8 11 18 18 17 14 14 14 15 16 14 16 17 16 15 17 20 22 24 24 26 26 26 28 28 26 23 21 21 19 18 17 16 16 16 15 14 14 13 13 12 12 11 10 9 8 8 7 7 6 5 5 5 5 4 4 2 2 2 1 1 1 1 1 2 3 4 4 6 7
15 11 7 7 9 9 8 10 8 7 5 6 6 5 4 7 7 9 10 12 15 4 6 7 13 16 18 15 16 20 18 19 18 17 15 14 17 17 17 18 16 15 19 21 23 26 25 26 27 28 29 28 25 22 21 21 21 20 18 16 15 15 15 14 14 14 14 13 13 12 11 10 9 8 7 7 6 5 4 5 5 4 3 3 2 2 2 2 2 1 1 2 4 5 6 6 7
13 7 7 8 8 9 10 11 8 5 3 6 8 5 6 8 3 6 5 11 12 1 6 12 19 19 18 18 18 16 17 19 18 18 16 15 16 17 17 15 15 16 20 22 24 26 25 26 28 28 29 28 24 22 23 23 22 21 18 17 15 15 16 15 15 15 15 15 14 12 11 10 9 8 7 7 7 5 5 5 4 4 4 4 3 2 3 3 2 2 2 3 5 7 8 7 8
12 6 7 9 9 11 12 11 7 3 8 6 3 2 6 4 3 2 3 9 10 5 10 18 18 17 16 15 17 14 15 16 17 18 17 17 14 15 17 15 14 15 20 23 23 24 24 27 28 28 29 27 24 23 24 23 22 21 19 18 17 16 17 16 16 16 16 15 13 12 9 8 8 8 7 7 7 6 5 5 4 4 3 3 3 3 3 3 3 3 3 3 5 8 10 10 8
12 10 7 9 12 14 17 14 9 4 7 6 3 2 3 3 2 1 2 6 6 5 9 13 13 15 14 11 13 11 12 14 16 16 14 16 14 13 15 15 15 15 20 22 20 22 25 28 28 28 29 27 24 24 24 24 22 21 20 19 18 17 17 16 17 17 16 14 12 11 9 8 8 8 7 7 6 6 6 5 4 4 3 2 2 3 3 3 4 4 5 6 7 9 10 10 7
11 12 8 11 14 13 17 13 9 9 7 6 4 4 4 5 5 2 2 4 2 4 8 15 17 17 16 13 11 10 11 13 14 14 13 15 15 13 13 14 14 13 16 18 19 23 27 30 30 28 28 27 26 25 24 25 24 21 19 19 18 18 19 18 17 17 15 13 11 11 9 9 9 8 8 7 6 6 6 5 4 3 2 2 2 2 3 4 5 5 6 8 9 10 10 10 6
9 12 14 16 17 14 13 9 7 8 6 3 6 8 7 3 3 8 7 6 3 5 6 12 20 17 17 17 13 13 13 13 14 14 14 15 15 13 13 13 13 12 14 15 19 24 28 31 31 29 28 28 27 26 27 27 25 22 20 19 18 18 19 18 17 15 13 12 11 10 9 9 8 8 8 7 6 6 6 5 5 4 3 3 2 3 2 3 5 5 6 7 8 8 8 8 9
10 11 15 19 20 18 14 11 3 2 6 7 9 13 9 6 5 12 9 6 7 8 15 19 21 16 16 16 14 15 14 13 13 13 13 15 14 13 13 12 12 13 13 14 16 22 27 29 30 29 29 29 27 27 28 27 24 22 20 19 18 18 18 17 17 15 13 13 10 8 9 9 8 7 7 7 6 6 6 6 6 5 5 4 4 4 3 2 4 5 7 7 6 6 5 7 9
14 11 14 18 20 19 17 14 4 1 8 11 13 13 6 5 8 8 9 9 11 11 17 19 18 17 17 15 14 15 14 13 12 12 13 13 12 11 11 10 10 11 12 13 14 18 23 26 28 30 29 29 28 28 28 26 24 22 21 20 18 19 19 17 17 17 14 11 10 9 9 8 8 7 8 7 6 6 6 7 6 6 6 6 6 5 4 4 4 5 6 7 6 5 6 8 8
15 13 14 16 18 19 17 17 12 6 8 9 11 13 6 7 12 9 10 10 12 13 10 14 18 19 17 15 15 14 12 13 13 12 12 12 12 11 10 10 11 12 12 14 15 15 19 22 26 29 28 28 28 28 27 25 24 22 21 20 18 19 19 15 13 15 13 10 10 10 8 8 8 8 8 8 8 8 7 7 7 7 8 8 8 7 5 6 6 5 6 5 5 7 8 8 9
13 15 17 17 18 18 13 12 13 12 12 10 10 12 11 11 14 11 9 11 10 13 10 11 18 21 18 14 12 12 12 12 13 13 11 12 13 13 12 12 13 13 13 14 14 14 16 19 24 27 26 27 28 27 26 25 23 22 21 20 18 17 14 12 10 10 10 9 10 11 8 7 7 8 7 8 8 7 8 7 7 8 9 10 9 8 6 7 7 8 8 6 7 9 8 8 10
13 19 19 19 19 19 16 13 13 15 16 15 11 11 14 13 12 8 7 18 15 11 9 12 16 22 21 18 14 13 14 12 13 12 11 12 13 13 13 12 12 12 12 11 11 11 13 17 21 24 24 26 28 27 24 23 23 21 19 17 14 14 11 10 10 8 8 9 10 10 8 6 7 8 7 9 8 6 7 6 6 7 10 10 9 9 9 9 9 10 11 8 8 9 8 8 8
18 20 15 14 18 19 20 16 13 14 14 16 15 13 14 13 13 10 11 20 14 9 9 12 16 25 22 20 19 17 15 13 12 13 13 12 11 12 13 12 11 12 11 10 10 10 12 15 17 19 22 26 26 24 21 20 20 16 14 12 10 11 9 10 11 9 9 10 10 8 7 6 7 8 8 8 7 6 7 5 4 6 10 11 10 9 9 11 11 12 11 10 10 10 9 9 10
20 19 12 12 14 15 19 17 15 14 11 15 15 12 12 11 14 15 17 21 13 10 13 13 17 27 22 17 16 15 14 12 12 14 14 12 11 12 13 11 10 11 11 9 10 12 12 12 14 16 19 22 22 19 16 14 13 10 8 8 6 7 8 9 9 8 9 9 8 8 8 8 7 8 8 7 7 7 6 6 6 8 10 10 10 10 9 10 11 13 11 10 11 12 11 10 12
16 15 11 11 12 11 16 18 17 15 12 14 12 8 9 11 17 17 17 22 16 14 14 12 15 26 25 19 17 15 14 13 13 13 13 12 11 11 13 10 8 11 11 10 11 13 13 12 12 14 16 16 15 14 13 11 11 9 8 9 6 6 8 8 8 6 6 6 7 8 7 7 7 7 7 7 8 7 6 7 8 9 10 10 10 11 11 10 9 11 10 11 12 13 13 12 14
11 12 10 9 9 9 13 16 17 15 13 17 13 7 8 11 17 19 18 18 14 14 14 11 19 26 26 23 21 17 15 14 12 11 12 11 11 11 12 10 8 12 12 11 12 14 17 15 12 13 15 14 11 11 11 11 12 10 10 11 7 6 6 6 6 6 6 6 6 7 7 6 7 7 7 8 8 7 8 9 9 9 10 10 11 12 12 10 8 10 9 9 12 13 12 13 13
8 9 9 9 9 9 13 16 18 17 15 19 16 8 9 11 15 21 23 20 15 15 16 13 23 24 23 22 19 16 14 13 10 9 10 10 12 11 11 10 10 13 12 12 15 16 16 15 14 13 14 13 11 11 10 10 10 8 10 10 7 6 5 4 5 6 6 7 8 8 8 7 7 8 9 8 7 8 10 10 9 10 12 11 11 12 13 11 9 10 8 5 9 12 11 11 10
8 8 9 9 11 10 11 15 19 20 15 18 17 9 8 10 16 21 25 24 19 17 15 15 25 21 20 18 16 15 12 11 10 10 10 10 12 11 12 12 11 12 13 14 17 16 14 15 15 13 12 12 11 11 10 10 9 7 9 8 6 4 3 4 4 4 5 7 8 8 8 7 7 8 8 6 7 10 12 11 10 11 11 10 10 11 11 11 11 10 8 7 7 10 10 8 8
7 9 9 10 14 11 10 13 16 21 16 15 17 12 10 11 15 20 25 31 22 17 15 17 27 20 21 18 15 15 12 11 11 10 11 11 13 13 13 13 11 14 15 16 19 18 15 16 15 12 11 12 11 11 10 9 8 6 7 6 4 2 3 4 3 3 4 5 6 7 7 6 5 7 7 6 8 10 12 13 12 10 8 9 9 10 11 12 12 10 8 10 7 8 10 9 8
9 9 8 9 13 14 13 14 13 21 19 15 15 14 14 16 16 17 15 25 21 16 15 18 27 20 21 19 15 16 12 12 12 11 12 13 14 14 16 15 13 16 17 18 19 18 16 15 14 12 12 13 12 12 10 8 6 5 5 4 3 2 2 2 1 2 2 2 3 5 5 4 5 7 7 7 8 9 11 11 10 7 6 9 10 10 13 13 11 10 9 10 8 7 10 10 9
14 12 11 10 11 13 14 15 11 18 18 15 14 13 15 16 17 12 5 13 13 14 13 19 25 19 20 19 15 15 14 14 12 9 13 15 14 14 18 17 15 17 19 20 19 17 16 15 15 14 13 13 11 10 10 8 7 6 6 6 6 6 5 4 4 6 5 3 2 3 4 3 4 5 6 6 7 8 10 10 7 6 7 10 11 10 12 13 10 9 9 9 9 8 8 9 9
18 13 12 13 12 10 14 16 13 16 14 13 14 15 15 14 16 14 12 16 12 12 11 17 24 21 20 19 16 16 15 15 11 8 14 14 13 15 17 17 17 17 19 20 19 17 15 14 16 15 14 14 11 9 9 9 10 8 8 8 8 7 6 5 3 3 3 3 2 1 2 2 3 4 5 6 6 7 9 8 6 7 9 10 10 9 11 12 10 10 10 9 10 8 7 8 9
17 13 13 13 12 11 14 16 13 14 10 10 14 15 14 13 13 14 13 15 15 13 12 13 21 24 22 20 18 18 17 14 12 11 12 14 14 15 16 16 18 18 19 20 18 17 16 15 16 15 15 15 12 10 11 11 10 9 10 10 9 6 5 3 2 3 2 1 1 2 1 1 1 2 4 5 7 7 8 8 7 8 9 7 9 9 10 11 10 10 10 9 10 9 8 9 10
13 10 12 11 9 10 12 15 15 11 7 8 13 13 12 13 13 13 14 11 12 17 16 14 16 25 22 20 19 20 22 18 16 16 15 17 17 16 17 17 18 19 20 20 18 18 19 18 16 15 16 15 14 13 13 12 10 10 11 9 5 3 5 5 2 1 1 1 3 2 2 2 2 2 3 3 5 6 5 6 6 7 7 6 8 9 9 10 10 9 9 8 10 9 9 10 11
10 9 9 9 9 9 9 12 13 8 5 5 9 9 9 11 13 13 12 13 12 16 17 14 17 29 25 23 23 23 27 23 20 19 19 20 19 18 19 19 19 20 21 20 20 20 20 18 17 17 15 14 15 16 14 13 11 11 10 6 6 9 10 8 4 4 3 3 2 2 3 2 2 3 3 4 4 5 4 4 5 6 7 7 8 8 8 9 9 9 9 9 10 10 10 10 11
8 10 10 10 10 11 10 7 8 8 6 5 7 8 7 9 14 13 9 14 19 14 16 16 17 28 26 23 22 25 28 24 22 22 22 22 21 20 21 23 22 22 22 21 21 21 21 19 18 17 16 15 17 17 14 12 11 10 9 9 10 9 7 7 4 4 4 3 3 3 3 3 3 4 3 3 4 4 3 3 4 5 7 7 7 8 8 9 9 9 9 9 9 9 10 9 9
8 12 14 15 15 15 12 9 10 6 7 8 7 7 7 9 14 11 8 14 16 12 13 14 16 26 24 20 22 27 27 22 22 24 25 23 21 21 22 25 24 22 22 21 21 22 21 20 19 19 19 18 17 16 15 13 11 10 10 10 8 6 6 6 4 4 3 3 3 4 3 3 4 4 4 4 4 4 3 2 2 3 5 5 6 7 8 8 8 9 8 8 9 9 9 9 8
8 11 15 19 20 18 15 11 9 5 5 7 8 8 7 8 12 12 13 15 11 10 11 11 21 27 23 22 26 28 25 23 23 26 27 24 21 21 20 22 24 22 22 23 23 23 22 21 20 20 21 20 17 17 16 14 12 12 10 8 8 8 8 8 6 5 5 5 4 2 2 4 4 2 4 5 5 4 3 2 2 3 3 2 5 6 7 7 6 7 7 7 7 7 8 8 7
8 11 15 18 21 19 17 17 10 6 6 6 9 10 7 6 10 13 15 14 11 11 12 11 19 26 25 25 29 28 26 26 26 26 27 24 21 20 17 18 22 24 23 25 26 24 23 23 20 21 23 22 19 19 18 16 16 15 11 9 9 9 10 10 10 8 6 5 5 4 5 6 5 3 4 6 5 4 4 4 3 3 2 3 1 3 4 5 4 4 6 7 6 6 7 7 6
11 15 15 15 16 18 16 14 7 6 6 6 8 11 7 7 7 8 11 12 12 13 12 12 16 26 27 26 30 31 30 28 25 26 26 23 21 20 17 17 21 23 23 25 26 25 24 23 22 22 24 24 22 20 20 18 16 15 13 13 13 12 10 9 8 8 7 6 6 7 5 5 5 4 5 6 5 3 3 5 7 8 6 2 2 3 4 6 7 7 8 7 6 6 5 5 7
12 17 17 12 13 14 13 9 5 5 5 7 9 9 7 7 5 6 9 10 11 11 11 12 15 24 27 25 27 28 27 23 22 25 25 24 22 21 18 18 21 22 22 23 24 25 25 23 22 23 24 25 23 21 19 16 15 15 14 13 13 12 11 9 7 6 6 6 6 7 7 4 3 4 5 6 5 3 3 4 7 11 13 10 7 6 5 8 10 8 7 6 6 6 5 5 7
13 16 15 12 10 10 9 8 6 6 6 9 11 11 9 7 5 5 7 8 9 9 11 9 11 24 25 22 23 22 21 21 22 25 26 24 22 21 20 19 21 23 23 22 23 24 24 23 23 22 22 24 23 20 18 17 17 17 15 13 13 13 12 10 8 5 5 5 5 6 6 4 4 4 5 6 6 4 5 6 5 6 10 10 9 6 5 6 7 6 4 4 4 4 4 5 6
12 11 11 9 7 7 8 7 7 7 7 10 13 13 11 6 3 1 1 1 3 7 12 9 16 25 24 21 19 18 19 21 25 27 26 24 23 23 22 21 24 26 25 24 24 24 23 23 23 22 22 24 22 19 19 20 19 18 15 13 12 12 11 9 7 6 5 5 5 5 5 5 5 4 3 4 4 3 5 9 6 3 7 9 7 6 6 6 6 5 4 4 5 4 4 6 8
9 9 7 6 6 7 7 7 7 7 7 9 11 12 9 4 4 4 6 9 11 4 7 16 23 25 25 23 20 19 19 22 25 27 26 25 23 23 23 25 28 28 27 27 27 26 24 23 22 23 24 24 21 19 20 21 20 17 14 12 10 10 10 9 7 7 6 5 5 5 5 5 4 4 3 3 4 5 6 9 6 4 7 9 7 6 7 7 7 6 5 5 5 6 7 9 11
9 8 6 6 6 6 6 7 7 6 8 9 8 8 5 4 6 6 5 9 13 10 11 22 28 28 26 24 22 20 17 20 24 25 27 26 24 23 24 27 30 31 30 28 28 28 27 25 24 25 25 24 22 20 21 21 18 16 14 11 9 9 10 10 8 8 7 6 6 5 5 5 5 5 5 4 6 7 7 8 6 5 7 8 9 11 11 9 8 8 8 8 8 9 11 12 13
10 8 8 7 5 5 6 6 5 5 6 7 7 5 2 4 6 6 7 8 9 9 10 15 24 31 29 22 21 20 16 19 24 24 25 24 22 22 23 24 27 30 30 29 29 29 28 28 29 28 27 27 25 22 21 21 18 15 13 10 9 9 10 11 9 8 8 7 7 7 6 6 6 6 7 8 9 9 8 8 7 7 8 9 11 14 14 10 9 11 12 12 12 12 12 13 14
8 9 9 6 6 6 3 2 2 2 2 3 5 2 2 3 6 8 8 8 9 8 8 8 14 27 32 24 21 20 16 20 23 22 23 22 21 22 22 21 22 24 27 28 29 29 28 30 30 29 28 28 26 22 20 20 19 16 12 10 10 10 11 11 9 8 8 8 8 7 7 7 8 8 7 7 7 6 5 6 7 9 10 11 11 14 16 12 10 12 13 12 12 11 11 11 12
5 8 9 8 8 7 3 2 4 3 3 3 3 4 5 4 5 8 10 9 8 7 8 10 12 20 28 25 23 22 19 23 25 25 27 25 23 23 21 20 20 20 23 25 26 27 27 27 28 28 27 26 23 20 20 21 20 17 13 12 12 11 11 11 9 8 9 10 10 9 9 10 10 9 6 5 5 6 7 8 8 9 10 11 11 12 14 12 11 14 15 13 13 12 10 10 11
5 6 7 8 9 7 3 2 4 5 5 4 5 6 6 5 4 8 11 10 9 6 9 13 14 16 19 19 22 22 20 24 26 27 27 23 20 18 15 15 17 19 21 21 21 23 24 25 25 25 25 23 19 18 18 18 18 16 14 14 13 12 11 10 8 7 7 8 8 9 10 10 9 7 6 7 7 7 8 8 8 9 10 10 10 10 11 11 11 13 13 12 12 11 10 11 12
10 4 3 5 7 6 4 3 4 5 5 4 8 9 5 2 4 9 12 11 11 9 10 11 10 12 14 14 15 15 15 19 24 26 24 20 19 17 13 11 13 15 17 17 16 18 22 24 21 18 19 19 17 16 17 16 15 14 13 13 12 10 10 9 7 5 5 5 5 6 8 9 8 7 7 7 6 6 7 6 7 8 10 11 10 10 10 9 10 10 10 10 10 9 10 11 12
11 6 4 6 4 3 3 3 4 5 4 5 8 8 2 4 1 6 11 12 12 9 9 9 9 12 14 13 12 13 17 19 20 24 24 23 22 20 16 14 14 14 16 15 16 17 21 24 19 14 15 16 15 14 13 11 11 10 9 9 9 9 9 8 6 5 5 4 3 3 5 7 8 7 7 7 6 5 5 5 6 7 8 9 10 10 9 9 9 9 9 10 10 10 11 12 12
8 6 6 6 3 3 3 3 4 5 3 4 4 4 4 5 5 5 10 10 12 11 8 8 12 14 14 17 17 14 16 17 18 23 27 26 24 21 19 17 15 16 16 15 15 15 18 21 16 12 13 12 11 11 9 8 7 6 7 8 8 9 9 8 6 6 7 5 3 2 3 5 8 8 7 7 6 6 5 5 5 6 7 8 9 9 10 10 11 11 11 11 12 12 13 14 14
7 7 7 7 4 4 4 4 5 5 3 2 1 3 4 3 5 7 10 8 10 10 6 8 15 16 13 17 22 19 19 22 20 22 26 25 24 23 19 15 15 15 14 13 13 12 12 14 12 10 10 9 8 8 8 7 6 6 7 9 10 10 9 8 8 9 8 6 3 3 5 7 9 10 10 8 6 6 5 4 5 5 6 7 8 10 11 11 12 13 14 14 12 12 14 15 14
Wind_Direction
140 154 157 150 133 104 228 215 233 218 221 252 243 248 243 239 245 254 244 210 235 14 312 267 356 330 286 4 320 31 52 47 38 42 87 130 138 151 168 163 171 158 150 161 161 158 151 147 141 138 138 139 145 151 156 158 159 158 159 157 152 147 144 142 136 129 124 123 121 119 119 118 120 123 128 127 130 135 134 134 132 134 134 128 127 124 129 138 139 139 133 128 117 107 101 89 82
112 138 154 153 164 253 226 203 243 232 212 242 240 244 252 243 236 242 233 202 160 77 8 315 46 289 295 331 296 1 57 58 66 81 102 124 123 133 162 168 170 160 159 160 160 156 150 146 141 139 138 142 149 155 158 161 162 160 163 158 154 151 148 145 138 132 126 126 121 118 118 117 123 128 133 130 131 135 139 142 133 129 127 123 122 122 135 142 137 145 147 145 131 119 113 101 89
131 178 184 194 223 238 239 210 234 251 229 232 239 229 239 253 243 239 242 267 64 77 77 61 13 273 189 229 288 31 71 67 77 92 109 123 122 128 143 157 163 154 159 161 159 155 150 146 142 140 139 145 151 156 159 161 164 164 164 158 156 153 151 147 140 135 131 129 122 118 117 117 122 127 134 132 131 131 134 135 127 117 115 120 117 108 124 133 130 141 156 158 144 129 126 116 99
167 188 204 218 219 222 237 225 230 249 248 242 249 216 213 243 242 202 102 41 49 69 121 66 78 148 232 276 46 63 72 69 75 88 110 119 127 136 143 153 158 146 157 161 158 154 151 146 142 139 141 147 151 154 157 162 165 165 163 158 157 155 153 148 143 138 134 131 123 117 115 115 116 120 127 130 131 130 131 129 127 123 119 129 127 124 130 131 133 140 155 160 152 140 139 134 112
165 184 215 223 229 234 238 236 235 239 248 251 263 252 193 257 49 86 77 46 30 71 287 270 165 141 239 7 46 59 58 65 72 75 99 114 137 144 147 159 158 139 151 157 158 156 151 145 142 140 143 145 147 149 155 161 163 162 160 157 156 156 154 149 145 139 135 130 122 118 116 115 115 118 121 126 132 134 135 130 130 131 134 143 140 147 149 147 146 148 162 163 157 153 151 145 128
166 206 228 230 256 294 278 239 237 237 242 251 267 312 24 52 53 61 71 42 160 265 294 272 277 111 101 62 66 63 45 55 76 73 102 124 146 147 147 151 133 134 147 156 160 157 151 146 142 141 142 141 143 147 153 157 158 158 156 155 156 155 154 150 145 139 135 129 125 123 121 122 125 125 124 127 133 137 137 131 131 132 135 141 144 152 154 155 156 160 176 170 162 163 158 151 142
182 220 207 222 256 266 264 245 246 243 240 245 258 277 338 61 62 54 51 220 168 195 238 256 289 6 92 91 79 64 51 59 85 88 117 138 144 137 137 132 123 133 146 160 162 157 151 146 143 142 141 140 142 146 149 151 153 154 152 153 154 154 152 149 144 139 135 131 130 129 131 135 133 130 133 136 139 141 137 134 132 129 130 133 137 139 132 144 157 166 180 175 167 167 163 159 152
212 237 208 213 242 221 238 248 250 252 247 241 246 256 58 64 55 0 301 228 200 185 202 212 243 257 90 96 88 73 66 72 89 100 122 141 144 137 137 136 131 136 146 157 157 155 149 145 146 145 143 142 143 145 146 147 149 149 150 152 153 153 150 147 144 140 137 135 136 139 142 142 138 135 142 146 147 145 139 138 137 133 128 124 126 121 114 120 144 168 182 177 169 169 167 165 159
225 242 227 225 242 232 238 242 245 252 256 252 252 240 119 114 165 259 297 281 251 304 217 190 198 221 101 98 96 90 81 78 95 106 126 142 148 145 145 145 139 143 152 149 152 154 147 146 148 146 146 144 144 144 144 145 146 147 150 153 153 152 149 147 145 143 141 141 143 145 146 142 142 143 147 155 151 148 144 140 138 138 131 124 120 112 112 110 120 151 174 175 171 173 170 167 165
223 228 233 237 240 245 243 241 243 248 254 258 255 240 91 88 147 219 254 273 260 252 241 192 187 165 102 100 94 85 86 97 103 108 129 141 144 147 146 148 148 153 152 143 153 154 147 149 149 148 149 146 146 144 144 144 146 150 155 156 155 153 150 149 148 147 145 145 146 146 145 140 143 146 149 159 152 148 153 147 138 138 134 131 124 116 119 119 127 133 162 176 177 178 174 173 171
222 219 232 249 240 246 248 245 241 237 244 255 246 205 198 101 107 254 245 264 262 252 250 216 194 120 100 99 98 95 102 113 113 113 127 133 134 140 143 147 155 159 148 142 154 155 150 152 151 152 152 149 148 146 147 148 152 155 158 159 156 154 152 152 151 149 147 148 147 145 141 137 143 150 154 157 147 146 158 157 142 136 132 130 131 127 129 142 162 152 213 193 188 186 182 182 178
228 218 220 243 246 243 250 254 249 241 228 232 233 152 185 150 155 262 257 253 259 266 248 215 208 129 110 96 104 113 116 121 120 118 125 129 132 137 140 147 155 159 148 144 154 156 153 153 153 154 154 152 151 151 153 154 157 158 160 160 157 157 156 155 154 152 151 149 146 142 140 141 144 151 156 152 147 148 156 160 147 140 135 133 149 159 152 162 194 245 256 208 197 192 190 192 186
231 238 220 235 249 254 256 259 264 267 249 226 187 89 105 116 183 250 245 239 242 255 246 215 178 112 105 92 104 115 114 125 127 128 137 135 137 136 138 148 156 160 151 147 156 159 157 157 158 160 159 157 156 157 159 159 160 161 162 162 160 161 159 156 155 155 152 147 147 143 140 142 143 149 152 150 154 152 156 165 159 165 174 174 175 179 176 196 265 259 240 209 196 191 194 201 198
230 246 246 251 249 257 261 265 271 272 271 270 95 113 114 156 239 257 249 241 229 231 251 205 120 100 111 112 113 117 117 124 127 137 146 139 134 133 138 146 155 160 155 154 163 166 166 166 166 166 164 162 161 161 163 164 164 166 167 166 165 163 161 160 156 155 150 146 145 141 136 135 139 143 144 148 159 160 168 177 174 190 195 182 181 178 176 203 282 231 241 235 212 192 192 200 202
235 246 254 263 260 259 254 260 269 272 295 47 62 156 120 229 236 275 259 256 246 230 253 109 104 111 139 138 139 137 132 128 131 142 147 142 135 134 139 141 148 157 158 160 170 176 174 172 170 169 167 166 165 165 167 168 168 171 172 171 168 165 164 162 158 154 150 148 145 139 134 132 135 138 142 150 160 171 177 178 177 195 202 192 181 187 213 168 210 202 218 233 222 210 193 191 190
235 249 256 255 260 262 254 252 254 263 271 65 15 291 341 258 213 234 246 239 249 225 148 89 77 93 112 103 131 140 139 136 141 148 145 139 136 136 134 135 143 154 161 166 176 182 181 176 174 174 172 169 168 171 173 171 172 174 176 176 172 168 168 163 157 155 151 150 146 140 135 137 140 141 146 151 160 178 183 180 183 200 214 214 191 186 208 194 225 216 170 181 198 207 197 187 174
231 243 255 254 252 251 252 251 245 253 238 99 29 351 300 265 192 214 240 237 252 220 136 115 87 90 94 92 118 132 135 139 146 147 140 133 133 136 131 134 145 159 167 172 181 183 184 180 178 180 174 169 172 176 176 171 172 176 177 174 172 170 169 163 157 156 153 150 146 141 140 142 145 149 153 156 166 184 197 195 191 205 214 218 214 188 196 201 209 194 165 166 170 181 184 185 173
229 229 238 248 248 248 247 255 266 292 352 62 41 18 264 271 182 186 214 237 253 201 105 92 88 90 95 109 125 133 138 144 150 145 139 137 137 140 139 140 148 163 171 175 183 182 184 182 182 181 173 171 178 182 177 172 173 178 179 173 172 171 167 164 159 157 153 150 149 146 146 148 153 163 164 165 177 189 207 212 203 206 207 208 213 188 189 196 193 177 154 154 162 166 168 173 171
229 234 233 239 245 253 252 264 288 17 34 37 27 323 237 283 20 122 201 232 233 193 106 89 94 100 105 122 128 132 144 152 156 152 145 144 148 151 151 152 152 159 170 175 179 183 186 183 183 180 175 178 185 186 178 174 175 179 183 179 175 170 166 164 158 156 156 157 154 149 151 153 160 170 174 178 184 195 207 219 227 224 214 203 201 189 187 186 184 173 147 150 157 157 161 157 149
223 234 239 239 242 257 261 278 305 329 358 343 346 348 242 290 281 182 247 232 210 188 128 125 136 122 120 126 124 133 153 160 162 162 149 146 158 161 156 158 160 160 168 175 177 184 186 185 184 180 181 187 190 189 181 176 178 180 182 180 176 168 163 161 159 161 163 162 156 154 160 160 166 173 182 191 190 197 204 217 236 236 221 199 191 184 172 178 176 159 142 139 132 138 146 133 130
215 225 242 247 245 252 255 280 305 279 289 295 319 326 258 255 262 299 193 190 198 209 194 177 154 132 134 135 141 151 161 165 164 168 152 148 159 161 163 161 160 158 162 169 174 181 186 187 184 184 189 193 192 191 187 180 178 180 179 177 173 167 163 161 163 167 166 161 159 162 164 167 178 184 184 194 199 201 206 212 228 230 210 185 185 180 154 151 147 139 140 138 123 121 123 119 161
223 229 237 248 256 259 261 294 309 285 301 298 281 276 285 330 290 275 215 173 209 197 167 149 134 131 142 141 152 155 162 168 165 169 157 156 161 159 164 162 158 153 156 163 171 180 185 187 186 189 193 195 194 187 184 182 181 180 178 176 171 170 167 163 165 168 168 163 162 166 169 178 188 193 190 191 197 204 214 214 219 226 209 194 198 197 172 153 151 146 141 142 126 110 114 137 190
233 242 239 245 254 262 278 299 317 300 293 279 264 262 292 345 273 265 248 188 194 151 109 122 129 133 145 142 150 157 164 169 170 170 156 159 166 164 162 165 165 154 157 162 172 182 185 187 189 192 193 194 195 185 182 183 184 181 177 177 173 173 168 168 171 167 173 168 165 175 179 190 194 200 204 195 196 207 222 222 217 225 222 211 203 204 208 209 201 170 143 139 127 109 135 171 197
232 244 243 246 249 254 266 274 284 115 250 254 264 266 284 299 263 259 261 225 185 143 119 134 139 141 147 147 156 160 162 167 171 163 153 160 164 165 160 160 160 152 157 160 171 184 187 190 191 194 194 193 192 186 184 185 185 183 180 179 175 175 169 174 172 159 170 172 167 179 180 189 194 201 205 197 200 203 217 225 221 230 230 220 209 207 208 214 219 192 160 142 134 152 179 180 192
231 242 246 250 251 252 253 254 256 245 244 244 251 264 266 261 263 253 253 236 177 162 155 145 142 146 148 150 159 159 163 164 163 161 159 162 158 158 156 155 154 153 160 165 174 182 188 193 191 194 194 192 191 187 187 187 185 182 182 181 177 179 171 165 156 148 166 176 176 184 183 184 191 208 206 198 201 202 217 232 230 229 224 218 212 209 207 203 202 195 180 157 161 184 180 171 183
228 239 244 248 251 255 256 252 251 248 252 249 237 251 254 250 262 261 255 255 204 168 182 183 160 152 144 148 160 154 160 162 160 165 163 160 158 155 160 162 158 161 167 173 176 179 191 193 188 191 192 192 192 187 188 189 185 183 183 182 179 181 172 152 140 148 167 178 188 194 196 188 193 213 205 196 200 203 216 230 229 220 219 221 216 213 213 209 202 189 179 169 179 182 176 175 182
242 243 242 243 249 254 253 243 241 247 247 245 241 243 244 238 249 251 231 251 239 155 175 219 170 146 142 145 156 157 161 167 168 170 166 165 165 161 164 163 163 166 169 172 168 175 189 187 187 189 186 189 190 188 191 189 185 184 182 178 176 175 171 162 156 165 179 190 199 197 202 198 199 212 202 196 196 198 210 219 224 219 221 220 215 214 216 224 218 197 183 181 186 173 174 181 167
252 253 252 246 250 251 249 239 227 239 239 233 238 244 242 233 237 232 225 244 237 163 205 222 149 135 139 142 151 161 164 171 177 178 175 169 167 167 161 161 170 168 168 171 159 168 179 176 180 180 180 185 186 188 190 188 183 176 170 168 169 169 174 181 172 175 184 192 200 196 203 208 207 212 207 205 198 197 203 201 211 225 224 215 212 213 222 233 229 221 209 197 189 164 167 178 162
253 256 260 250 251 249 246 240 224 231 235 223 228 243 240 232 236 229 229 239 219 184 219 214 149 133 135 146 157 164 168 179 188 184 177 166 165 166 158 161 171 165 169 171 159 165 167 161 162 162 172 179 179 182 179 179 177 160 160 167 162 168 180 189 181 179 183 186 196 200 209 216 219 217 211 213 209 200 199 200 211 228 225 214 213 212 219 225 226 242 232 195 180 156 153 169 166
255 252 254 252 251 248 242 237 226 228 231 220 219 235 233 229 237 229 230 237 211 188 217 207 148 129 130 148 161 167 171 186 196 181 170 164 160 160 159 161 161 160 168 168 161 162 157 155 161 158 158 159 161 163 150 142 147 143 168 182 177 179 183 187 186 191 198 201 209 214 223 229 231 229 217 217 216 205 211 223 220 224 221 215 216 213 217 219 223 240 220 176 171 158 157 171 171
249 243 242 245 249 248 238 228 218 224 224 214 216 234 235 227 226 220 226 236 198 181 221 193 138 128 132 145 154 163 171 186 201 174 160 160 154 152 149 147 152 156 161 163 161 162 164 161 156 152 145 140 141 146 139 132 137 143 164 178 182 186 189 198 206 217 225 226 227 232 242 250 248 242 231 229 224 211 223 233 224 222 223 216 212 211 214 214 215 221 202 166 162 161 164 171 171
239 237 235 232 241 250 244 230 211 215 218 207 214 236 236 238 233 215 213 226 199 186 224 184 139 134 138 144 146 153 164 180 197 165 148 147 143 141 134 139 157 159 158 160 160 162 169 163 149 145 138 129 129 138 140 139 143 153 164 173 174 176 199 216 225 239 243 241 243 249 251 253 251 243 237 240 237 222 226 236 225 219 221 215 206 207 209 202 205 213 205 182 163 156 159 164 164
227 227 238 236 237 239 245 243 212 205 213 204 209 229 233 238 246 225 205 215 206 190 217 165 138 139 140 142 142 148 159 170 183 165 150 143 135 131 133 148 161 158 159 157 154 151 152 157 152 149 137 118 120 133 134 146 158 159 162 173 172 172 223 237 248 266 264 261 257 263 266 261 252 243 241 242 243 229 225 230 221 215 218 217 208 202 200 195 205 214 194 183 171 151 151 159 160
224 219 234 238 244 242 233 247 217 196 205 208 203 215 243 236 242 245 213 206 198 187 210 153 136 143 140 143 145 148 158 164 173 162 148 140 132 133 143 158 167 161 161 152 143 136 136 147 146 141 131 117 125 139 137 147 151 137 148 166 176 199 256 238 250 283 269 266 262 263 270 269 261 253 246 227 225 223 218 219 215 216 223 222 212 194 193 197 206 211 186 173 172 154 146 147 158
231 218 227 230 243 248 237 248 222 187 193 213 205 201 235 244 248 266 225 194 181 181 200 146 138 148 141 146 149 146 154 160 172 166 148 134 128 142 156 165 171 159 149 137 134 134 133 136 135 128 123 124 131 138 138 140 134 120 135 144 139 130 104 162 225 339 309 262 254 256 257 256 259 254 244 219 210 214 216 217 218 228 232 220 209 194 198 205 203 202 189 174 178 173 151 144 159
240 230 230 225 230 241 238 251 227 180 183 207 216 208 218 239 247 255 190 164 175 196 193 140 142 154 143 146 148 145 147 153 168 157 136 135 136 156 167 167 166 150 133 128 132 135 130 121 124 127 128 137 138 139 145 140 136 128 122 120 113 104 81 65 30 19 12 349 308 277 270 258 261 253 238 219 211 211 213 220 230 229 213 211 208 198 203 208 200 193 192 185 188 186 163 164 175
250 254 249 233 229 240 233 244 228 182 186 202 212 224 214 223 242 231 182 166 185 218 202 150 151 155 149 152 150 144 141 152 165 111 113 147 161 165 169 163 158 147 133 136 137 132 134 125 129 141 141 145 144 138 137 124 124 124 113 106 91 77 63 55 28 20 7 324 333 326 286 259 257 250 224 213 217 217 212 217 229 218 206 209 210 198 201 209 204 194 193 189 190 183 163 179 186
256 269 274 246 223 237 232 238 228 178 183 206 203 222 221 216 231 232 213 187 180 200 217 195 167 154 153 156 150 141 131 140 150 121 128 164 169 164 167 162 160 151 138 147 142 125 139 147 147 155 144 141 142 125 123 123 120 119 111 93 69 50 60 84 269 263 234 265 49 61 11 195 187 206 208 216 221 213 211 217 219 215 208 202 202 195 194 204 205 195 189 186 190 184 165 175 184
258 260 275 267 227 231 233 235 229 181 174 216 203 208 224 229 227 227 237 228 185 177 205 228 167 147 153 157 153 142 124 122 140 156 165 164 161 168 173 167 163 155 146 156 152 125 133 145 146 151 139 135 139 129 131 133 124 123 114 90 78 128 144 162 205 347 49 89 91 85 66 90 114 129 162 193 206 195 205 218 204 199 193 184 193 197 195 195 195 189 186 189 189 182 173 176 186
254 254 257 271 250 231 231 230 220 177 150 236 228 217 221 232 235 227 223 241 233 181 190 222 163 149 158 160 159 144 127 130 149 167 169 158 165 173 172 173 168 160 154 156 155 137 131 137 142 148 141 135 142 142 137 135 137 137 126 122 173 183 177 178 155 85 67 58 74 98 97 100 100 111 139 150 167 177 195 202 182 184 190 193 196 197 198 194 194 192 192 197 188 181 183 179 188
236 248 246 258 260 244 236 202 155 135 143 203 247 255 241 227 232 225 196 233 243 185 180 221 174 151 156 157 154 137 130 144 158 168 168 163 174 175 169 176 173 163 157 151 151 144 134 134 137 142 143 140 140 138 134 142 154 148 151 178 190 189 177 170 147 102 85 67 54 72 97 111 106 101 97 96 123 142 158 158 163 181 185 188 186 187 197 200 205 207 207 209 194 187 189 181 195
234 235 242 254 267 262 246 188 150 159 185 181 200 240 246 234 234 224 197 233 233 175 187 216 153 142 155 149 135 132 138 157 167 172 172 164 172 178 175 177 172 161 157 154 152 150 145 143 137 138 145 143 139 137 135 141 147 148 165 177 167 148 141 140 125 100 108 123 94 77 90 92 95 112 107 84 86 108 138 144 153 164 159 174 180 181 189 192 201 203 207 210 193 192 191 177 190
245 228 228 244 259 267 268 243 205 209 224 190 191 226 243 231 229 222 218 227 212 180 208 191 133 139 156 138 125 136 150 163 169 173 173 167 171 181 179 174 171 165 161 161 160 158 159 158 147 143 147 145 141 139 135 137 142 145 149 142 133 138 146 151 151 145 163 180 151 107 73 79 69 68 97 89 73 85 117 120 171 166 118 122 167 174 179 176 181 182 187 193 184 193 193 177 179
247 235 218 226 245 255 267 268 238 191 223 224 204 218 242 240 222 216 218 215 201 202 210 181 144 147 155 142 135 146 158 164 167 169 171 168 171 178 174 169 174 177 174 170 169 165 164 163 153 146 150 150 149 144 143 151 150 142 141 144 152 166 173 172 170 169 179 181 141 86 57 82 87 59 83 96 84 84 113 114 136 152 59 6 80 164 180 168 162 177 190 185 176 190 192 184 184
237 245 229 213 230 243 253 264 241 187 221 238 215 211 229 250 221 208 220 211 208 210 198 191 169 155 157 152 143 150 162 167 162 157 160 161 162 167 172 180 184 183 181 176 174 170 166 165 157 153 155 155 155 152 152 159 153 143 151 162 169 179 180 170 169 177 178 159 127 114 116 127 134 119 96 92 85 86 139 151 154 151 150 183 178 165 176 175 185 204 203 184 176 187 180 175 177
234 246 249 226 216 231 246 255 229 204 232 236 224 212 225 248 209 197 221 210 212 207 190 208 187 157 154 149 142 149 157 156 148 148 158 163 165 170 181 194 193 187 185 183 181 177 172 171 166 162 162 160 160 157 155 160 156 150 158 167 172 170 157 153 168 180 171 156 147 154 158 147 145 141 123 116 120 134 148 149 159 159 158 162 167 176 183 179 182 188 182 173 182 186 171 172 171
232 241 248 237 216 222 238 248 236 221 229 233 226 218 229 241 198 199 213 202 215 200 182 200 156 136 140 139 140 148 144 134 139 152 164 170 171 177 187 196 196 191 189 189 190 185 180 177 171 166 165 164 163 163 162 163 160 158 163 166 164 157 150 158 174 166 149 149 149 156 150 135 154 162 156 154 156 176 156 117 110 158 164 163 165 174 174 163 160 159 160 167 174 171 168 170 161
224 242 244 228 213 222 224 225 235 231 227 233 225 216 227 236 194 225 299 201 250 212 186 161 115 119 130 132 134 141 132 127 140 155 165 170 173 179 187 194 194 192 189 188 188 187 183 179 172 166 165 166 166 166 165 164 163 164 167 165 159 158 159 161 162 147 141 148 142 145 150 156 169 163 170 169 154 156 134 116 109 144 149 147 155 161 156 143 135 140 148 137 135 134 136 143 143
221 240 247 227 206 214 216 210 219 234 236 233 225 214 218 218 152 77 31 25 16 2 148 124 118 125 133 135 136 135 133 139 148 156 164 171 174 176 183 189 191 192 188 183 182 182 181 177 173 169 168 170 172 170 166 166 168 169 172 173 164 162 162 159 156 147 150 165 156 156 162 160 167 168 175 170 132 122 119 126 142 156 134 131 129 122 126 129 125 132 135 122 123 123 120 130 134
229 226 220 220 216 210 215 212 210 230 228 218 223 222 199 145 127 109 72 41 29 28 74 106 123 134 137 140 141 134 136 150 154 158 164 169 169 171 181 189 191 191 189 183 179 180 179 175 172 171 170 171 173 171 169 172 175 174 175 178 169 168 167 159 155 151 157 174 164 155 157 159 175 180 170 141 134 146 152 147 148 142 134 136 126 108 98 102 112 115 112 107 106 109 115 124 129
219 230 229 218 221 224 225 224 219 238 232 207 205 218 185 127 123 105 91 75 56 46 60 94 119 131 134 135 138 136 138 151 155 160 164 164 167 176 186 192 193 193 193 189 183 182 182 176 171 171 172 171 169 169 168 172 178 179 179 179 173 172 163 154 159 164 166 172 161 150 158 175 186 184 173 164 168 179 174 156 147 136 124 120 122 115 105 105 116 113 109 109 109 111 121 129 134
201 219 235 225 218 225 230 238 225 244 276 223 187 156 55 117 132 115 105 91 75 65 70 86 113 129 132 131 141 147 151 158 159 159 162 164 171 181 187 188 190 197 199 194 188 185 184 180 176 177 177 172 169 168 166 169 178 183 183 180 174 167 158 159 172 179 171 163 154 153 172 191 195 197 193 182 181 179 154 141 142 140 131 123 126 128 128 135 139 121 111 110 110 114 125 133 137
205 206 223 222 215 220 219 205 204 205 254 238 160 111 107 147 156 143 135 109 86 62 63 74 87 115 124 131 145 153 162 170 164 159 166 172 174 179 186 186 187 197 200 198 195 190 188 186 183 183 182 175 169 166 163 168 177 182 182 178 176 172 167 174 186 187 174 163 158 166 185 199 206 212 206 179 158 137 134 144 149 149 147 140 138 140 141 145 142 127 122 123 123 124 128 127 124
231 212 218 214 207 215 221 216 217 214 232 216 157 154 161 168 176 160 146 120 104 82 62 70 75 90 105 120 138 149 165 172 166 164 168 173 174 174 182 189 190 196 199 201 200 193 189 188 185 184 184 177 168 165 165 169 174 177 177 175 178 181 181 191 200 192 181 175 175 186 198 206 212 216 203 181 168 155 150 155 158 156 150 142 140 139 141 145 143 139 139 139 137 137 134 127 122
232 235 245 234 211 205 202 208 230 224 232 215 174 179 190 195 181 163 150 131 116 102 88 86 83 91 97 102 120 137 146 152 161 167 167 170 169 162 166 190 199 193 189 190 190 185 186 185 177 175 183 179 172 170 169 167 166 170 175 178 183 192 198 207 208 195 195 198 199 210 219 222 224 217 199 186 179 172 160 153 158 160 155 153 148 142 144 149 148 146 143 140 140 140 134 128 128
229 244 257 252 231 214 218 216 234 228 230 227 194 181 147 6 358 157 151 140 129 119 110 109 111 116 117 116 121 126 120 127 154 166 165 167 162 155 165 189 196 180 170 173 173 178 188 186 172 168 182 186 185 182 177 172 168 172 181 188 197 207 211 210 203 200 199 186 187 223 235 236 234 223 197 182 173 164 156 155 160 163 162 161 155 151 151 147 141 140 140 137 133 128 126 125 126
219 225 234 241 207 184 223 232 240 238 225 232 219 160 85 8 360 95 121 123 122 125 127 127 127 124 125 133 140 144 141 149 167 165 161 162 157 152 160 173 176 167 162 167 170 177 190 187 176 175 183 188 196 199 200 199 195 195 193 194 202 209 210 206 198 197 190 174 176 231 240 225 220 212 191 179 176 169 164 160 155 157 162 162 159 154 144 139 138 138 136 132 128 130 133 132 126
225 215 222 235 219 195 216 222 229 239 249 262 251 113 95 347 349 76 95 92 94 103 113 118 116 111 114 133 146 159 166 166 167 158 154 157 157 156 157 156 155 152 149 155 160 164 178 178 174 181 186 189 206 218 226 222 206 199 187 181 191 201 202 200 197 194 190 190 204 228 230 217 209 203 188 177 179 174 157 144 145 156 162 162 158 147 141 146 151 147 137 128 129 142 144 138 132